Weather reports worldwide

Advertisment
Cairngorm, United Kingdom (3065): temperature & dewpoint: 16.11.2017 05:00:00 - 22.11.2017 05:00:00 (GMT)Cairngorm, United Kingdom (3065): wind speed & gusts: 16.11.2017 05:00:00 - 22.11.2017 05:00:00 (GMT)Cairngorm, United Kingdom (3065): wind direction: 16.11.2017 05:00:00 - 22.11.2017 05:00:00 (GMT)
Date & Time tt [°C] td [°C] ff [km/h] ff [kn] fx [km/h] fx [kn] dd
22.11.2017 05:00:00 -0,3 -0,3 68 37 93 50 W
22.11.2017 04:00:00 -0,7 -0,7 65 35 - - W
22.11.2017 03:00:00 -0,3 -0,3 65 35 91 49 W
22.11.2017 02:00:00 0,0 0,0 63 34 85 46 W
22.11.2017 01:00:00 0,1 0,1 63 34 93 50 W
22.11.2017 00:00:00 0,7 0,7 67 36 102 55 W
21.11.2017 23:00:00 1,4 1,4 59 32 78 42 WNW
21.11.2017 22:00:00 1,5 1,5 46 25 54 29 W
21.11.2017 21:00:00 1,7 1,7 26 14 117 63 W
21.11.2017 20:00:00 4,7 4,7 93 50 131 71 WSW
21.11.2017 19:00:00 4,5 4,5 80 43 122 66 WSW
21.11.2017 18:00:00 3,8 3,8 57 31 89 48 SW
21.11.2017 17:00:00 2,8 2,8 52 28 70 38 SW
21.11.2017 16:00:00 2,4 2,4 44 24 55 30 SSW
21.11.2017 15:00:00 3,0 3,0 37 20 54 29 SW
21.11.2017 14:00:00 2,5 2,5 44 24 54 29 SSW
21.11.2017 13:00:00 2,1 2,1 9 5 - - SSW
21.11.2017 12:00:00 2,1 2,1 8 4 - - NE
21.11.2017 11:00:00 1,6 1,6 5 3 - - NNE
21.11.2017 10:00:00 0,3 0,3 5 3 - - W
21.11.2017 09:00:00 0,1 0,1 16 9 - - SW
21.11.2017 08:00:00 0,1 0,1 18 10 - - SSW
21.11.2017 07:00:00 0,1 0,1 16 9 - - SSW
21.11.2017 06:00:00 0,1 0,1 16 9 - - SSW
21.11.2017 05:00:00 0,1 0,1 22 12 - - S
21.11.2017 04:00:00 0,1 0,1 26 14 - - S
21.11.2017 03:00:00 0,1 0,1 29 16 48 26 S
21.11.2017 02:00:00 -0,1 -0,1 28 15 - - S
21.11.2017 01:00:00 0,0 0,0 24 13 50 27 S
21.11.2017 00:00:00 -0,2 -0,2 28 15 - - S
20.11.2017 23:00:00 -0,2 -0,2 26 14 - - S
20.11.2017 22:00:00 -0,4 -0,4 28 15 - - S
20.11.2017 21:00:00 -0,5 -0,5 22 12 - - S
20.11.2017 20:00:00 -0,4 -0,4 22 12 - - S
20.11.2017 19:00:00 -0,3 -0,3 21 11 - - S
20.11.2017 18:00:00 -0,7 -0,7 16 9 - - S
20.11.2017 17:00:00 -0,3 -0,3 24 13 - - S
20.11.2017 16:00:00 -0,6 -0,6 18 10 - - SSE
20.11.2017 15:00:00 -0,3 -0,3 16 9 - - S
20.11.2017 14:00:00 0,1 0,1 11 6 - - SE
20.11.2017 13:00:00 0,0 0,0 8 4 - - S
20.11.2017 12:00:00 -0,4 -0,4 11 6 - - SSW
20.11.2017 11:00:00 -0,9 -0,9 13 7 - - S
20.11.2017 10:00:00 -1,1 -1,1 13 7 - - SSW
20.11.2017 09:00:00 -1,0 -1,0 18 10 - - SSW
20.11.2017 08:00:00 -1,5 -1,5 24 13 - - S
20.11.2017 07:00:00 -2,0 -2,0 26 14 50 27 SSW
20.11.2017 06:00:00 -2,1 -2,1 26 14 - - S
20.11.2017 05:00:00 -2,9 -3,0 28 15 - - S
20.11.2017 04:00:00 -2,3 -2,3 22 12 - - SSW
20.11.2017 03:00:00 -2,2 -2,2 22 12 - - SSW
20.11.2017 02:00:00 -1,8 -1,8 28 15 - - SW
20.11.2017 01:00:00 -2,1 -2,1 15 8 - - SW
20.11.2017 00:00:00 -2,6 -2,7 21 11 - - SSW
19.11.2017 23:00:00 -3,4 -3,5 18 10 - - S
19.11.2017 22:00:00 -3,8 -3,9 11 6 - - SSW
19.11.2017 21:00:00 -4,0 -4,1 5 3 - - S
19.11.2017 20:00:00 -3,8 -3,9 5 3 - - W
19.11.2017 19:00:00 -3,8 -4,0 5 3 - - SSW
19.11.2017 18:00:00 -4,2 -4,4 22 12 - - W
19.11.2017 17:00:00 -4,6 -4,9 22 12 - - W
19.11.2017 16:00:00 -4,6 -4,9 21 11 - - W
19.11.2017 15:00:00 -4,5 -4,7 24 13 - - W
19.11.2017 14:00:00 -4,6 -4,8 24 13 - - WNW
19.11.2017 13:00:00 -4,2 -4,5 39 21 - - WNW
19.11.2017 12:00:00 -3,5 -3,7 39 21 - - WNW
19.11.2017 11:00:00 -2,8 -2,9 37 20 - - WNW
19.11.2017 10:00:00 -3,8 -4,0 37 20 48 26 WNW
19.11.2017 09:00:00 -3,9 -4,1 44 24 55 30 WNW
19.11.2017 08:00:00 -4,0 -4,2 46 25 57 31 WNW
19.11.2017 07:00:00 -3,6 -3,8 50 27 68 37 NW
19.11.2017 06:00:00 -3,9 -4,1 57 31 70 38 WNW
19.11.2017 05:00:00 -3,1 -3,4 55 30 67 36 WNW
19.11.2017 04:00:00 -3,8 -4,0 59 32 72 39 WNW
19.11.2017 03:00:00 -4,1 -4,3 61 33 74 40 WNW
19.11.2017 02:00:00 -3,7 -3,9 59 32 76 41 NW
19.11.2017 01:00:00 -3,3 -3,5 67 36 80 43 NW
19.11.2017 00:00:00 -3,1 -3,3 67 36 85 46 NW
18.11.2017 23:00:00 -3,0 -3,2 65 35 83 45 NW
18.11.2017 22:00:00 -3,3 -3,5 59 32 78 42 NW
18.11.2017 21:00:00 -3,4 -3,6 68 37 87 47 WNW
18.11.2017 20:00:00 -3,4 -3,5 78 42 91 49 WNW
18.11.2017 19:00:00 -4,4 -4,7 68 37 87 47 WNW
18.11.2017 18:00:00 -4,7 -4,9 72 39 98 53 WNW
18.11.2017 17:00:00 -4,8 -5,1 87 47 120 65 WNW
18.11.2017 16:00:00 -4,9 -5,3 83 45 115 62 WNW
18.11.2017 15:00:00 -4,8 -5,2 81 44 120 65 WNW
18.11.2017 14:00:00 -4,7 -5,1 76 41 109 59 WNW
18.11.2017 13:00:00 -4,9 -5,1 87 47 111 60 WNW
18.11.2017 12:00:00 -5,3 -5,6 93 50 111 60 WNW
18.11.2017 11:00:00 -5,4 -5,7 96 52 115 62 WNW
18.11.2017 10:00:00 -5,7 -6,1 81 44 98 53 WNW
18.11.2017 09:00:00 -5,6 -6,0 87 47 104 56 WNW
18.11.2017 08:00:00 -6,0 -6,4 93 50 111 60 WNW
18.11.2017 07:00:00 -5,2 -5,5 78 42 102 55 WNW
18.11.2017 06:00:00 -4,5 -4,8 72 39 93 50 WNW
18.11.2017 05:00:00 -4,7 -5,0 63 34 100 54 WNW
18.11.2017 04:00:00 -4,7 -5,0 87 47 117 63 WNW
18.11.2017 03:00:00 -3,7 -3,9 85 46 124 67 WNW
18.11.2017 02:00:00 -3,5 -3,7 102 55 139 75 WNW
18.11.2017 01:00:00 -2,9 -3,0 102 55 137 74 WNW
18.11.2017 00:00:00 -1,7 -1,7 93 50 128 69 WNW
17.11.2017 23:00:00 -1,4 -1,4 98 53 139 75 WNW
17.11.2017 22:00:00 -1,6 -1,6 98 53 139 75 W
17.11.2017 21:00:00 -1,5 -1,5 100 54 137 74 W
17.11.2017 20:00:00 -0,6 -0,6 85 46 137 74 W
17.11.2017 19:00:00 -1,7 -1,7 87 47 135 73 W
17.11.2017 18:00:00 -1,9 -1,9 91 49 139 75 W
17.11.2017 17:00:00 -1,7 -1,7 91 49 130 70 W
17.11.2017 16:00:00 -1,9 -1,9 87 47 133 72 W
17.11.2017 15:00:00 -1,8 -1,8 89 48 131 71 W
17.11.2017 14:00:00 -1,3 -1,3 87 47 124 67 W
17.11.2017 13:00:00 -1,6 -1,6 91 49 130 70 W
17.11.2017 12:00:00 -1,8 -1,8 93 50 133 72 W
17.11.2017 11:00:00 -1,4 -1,4 87 47 131 71 W
17.11.2017 10:00:00 -1,4 -1,4 102 55 131 71 W
17.11.2017 09:00:00 -1,5 -1,5 104 56 135 73 W
17.11.2017 08:00:00 -1,8 -1,8 106 57 131 71 W
17.11.2017 07:00:00 -1,7 -1,7 96 52 139 75 W
17.11.2017 06:00:00 -2,3 -2,3 93 50 131 71 W
17.11.2017 05:00:00 -2,0 -2,0 91 49 126 68 W
17.11.2017 04:00:00 -2,9 -2,9 96 52 128 69 W
17.11.2017 03:00:00 -3,5 -3,6 96 52 130 70 W
17.11.2017 02:00:00 -3,4 -3,5 87 47 128 69 W
17.11.2017 01:00:00 -3,4 -3,6 87 47 109 59 W
17.11.2017 00:00:00 -3,5 -3,6 85 46 106 57 W
16.11.2017 23:00:00 -4,0 -4,2 83 45 104 56 W
16.11.2017 22:00:00 -3,9 -4,1 80 43 106 57 W
16.11.2017 21:00:00 -4,1 -4,3 85 46 117 63 W
16.11.2017 20:00:00 -3,8 -4,0 81 44 113 61 W
16.11.2017 19:00:00 -4,0 -4,2 81 44 106 57 W
16.11.2017 18:00:00 -3,7 -3,8 80 43 115 62 W
16.11.2017 17:00:00 -4,0 -4,2 80 43 106 57 W
16.11.2017 16:00:00 -3,8 -4,0 81 44 122 66 W
16.11.2017 15:00:00 -4,1 -4,2 80 43 130 70 W
16.11.2017 14:00:00 -4,3 -4,5 85 46 124 67 WNW
16.11.2017 13:00:00 -4,4 -4,6 89 48 137 74 W
16.11.2017 12:00:00 -4,3 -4,5 98 53 144 78 W
16.11.2017 11:00:00 -3,7 -3,8 89 48 124 67 WNW
16.11.2017 10:00:00 -3,9 -4,1 85 46 122 66 W
16.11.2017 09:00:00 -4,0 -4,2 85 46 128 69 W
16.11.2017 08:00:00 -2,4 -2,4 76 41 119 64 W
16.11.2017 07:00:00 -0,9 -0,9 78 42 124 67 W
16.11.2017 06:00:00 -0,5 -0,5 76 41 130 70 W
16.11.2017 05:00:00 - - 87 47 122 66 W

tt = temperature
td = dewpoint
ff = wind speed
fx = gusts
dd = wind direction

Next stations